    Observer details:
    104 San Marcello Pistoiese.  Observers P. Bacci, M. Maestripieri, T.
        Giovannetti.  Measurers P. Bacci, L. Tesi, G. Fagioli.  0.60-m F4
        Reflector + CCD.
    203 GiaGa Observatory.  Observers S. Foglia, G. Galli.  Measurer G. Galli.
        0.36-m f/5.76 Schmidt-Cassegrain + CCD.
    958 Observatoire de Dax.  Observers P. Dupouy, J. B. de Vanssay.  Measurer P.
        Dupouy.  0.43-m f/2.7 Reflector + CCD.
    C40 Kuban State University Astrophysical Observatory.  Observers A. Ivanov, A.
        Barcov, V. Ivanov, V. Lysenko, N. Yakovenko, N. Ivanova, N. Gorbunov, G.
        Kurbatov, P. Shchukin, V. Roshchupko.  Measurer A. Ivanov.  0.51-m f/8
        reflector + CCD.
    G17 BAS Observatory, Scandicci.  Observer L. Grazzini.  0.20-m f/10 Schmidt-
        Cassegrain + CCD + f/6.3 focal reducer.
    H21 Astronomical Research Observatory, Westfield.  Observer R. Holmes.
        Measurers T. Linder, R. Holmes, L. Horn.  0.76-m f/3.0 astrograph + CCD.
    H36 Sandlot Observatory, Scranton.  Observer G. Hug.  0.56-m f/4.8 reflector +
        CMO.
    I93 St Pardon de Conques.  Observer F. Losse.  0.40-m f/3.7 reflector + CMO.
    K51 Osservatorio del Celado, Castello Tesino.  Observer M. Campestrin.  0.80-m
        f/4 reflector + CCD.
    L01 Visnjan Observatory, Tican.  Observers K. Korlevic, P. Dusevic, L. Gelo,
        L. Ilisevic, I. Paleka, E. Pettarin, L. Poropat, V. Srdic.  Measurer L.
        Gelo.  1.0-m f/2.9 reflector + CCD.
    L18 QOS Observatory, Zalistsi.  Observers O. V. Kravchenko, S. V. Rischenko.
        Measurer A. M. Kozhukhov.  0.50-m f/3.8 reflector + CCD.
    L65 Bredenkamp Observatory, Bremen.  Observer H. Duin.  0.23-m f/6.3 reflector
        + CMO.
    L81 Skygems Namibia Remote Observatory.  Observer L. Demetz.  0.51-m f/6.7 iDK
        + CCD.
    M21 Schiaparelli Southern Observatory, Hakos.  Observers A. Aletti, F.
        Bellini, L. Buzzi, G. Galli.  Measurer L. Buzzi.  0.36-m f/8.4 reflector +
        CCD.
    M22 ATLAS South Africa, Sutherland.  Observers L. Denneau, R. Siverd, J.
        Tonry, H. Weiland.  Measurers L. Denneau, N. Erasmus, A. Fitzsimmons, A.
        Lawrence, J. Robinson, R. Siverd, J. Tonry, H. Weiland.  0.5-m Reflector +
        CCD.
    U52 Shasta Valley Observatory, Grenada.  Observers J. E. Rogers, B. Haeusler.
        Measurers J. E. Rogers, D. Parrott.  0.30-m f/5.2 0.30-m Helin Telescope +
        CCD.
    W68 ATLAS Chile, Rio Hurtado.  Observers L. Denneau, R. Siverd, J. Tonry, H.
        Weiland.  Measurers L. Denneau, N. Erasmus, A. Fitzsimmons, A. Lawrence,
        J. Robinson, R. Siverd, J. Tonry, H. Weiland.  0.5-m Reflector + CCD.
    W94 MAP, San Pedro de Atacama.  Observers A. Maury, G. Attard.  Measurers D.
        Parrott, F. Signoret, J.-M. Mari.  0.28-m f/2.2 Schmidt astrograph + CCD.
    X09 Deep Random Survey, Rio Hurtado.  Observers A. Schnabel, D. Ruhela.
        Measurer S. Deen.  0.43-m reflector + CMOS.
    X10 OVTLN, San Pedro de Atacama.  Observers A. Maury, G. Attard, F. Signoret.
        Measurers A. Maury, G. Attard, D. Parrott, J.-M. Mari.  0.50-m f/4
        reflector + CCD.
    Y05 SONEAR Wykrota-CEAMIG, Serra da Piedade.  Observer C. Jacques.  0.45-m
        f/2.9 reflector + CMO.
    Z80 Northolt Branch Observatory.  Observer G. Wells.  Measurers G. Wells, D.
        Bamberger.  0.25-m f/8.0 Ritchey-Chretien + CCD.
    
    Orbital elements:
    2023 PD                                                  Earth MOID = 0.0295 AU
    Epoch 2023 Sept. 13.0 TT = JDT 2460200.5                Veres                   
    M  18.50748              (2000.0)            P               Q                  
    n   0.39748557     Peri.  348.48696     +0.55650595     +0.82605214             
    a   1.8319845      Node   315.24966     -0.75188374     +0.45508356             
    e   0.4322244      Incl.    7.27089     -0.35351376     +0.33247079             
    P   2.48           H   24.97          G   0.15           U   7                  
    Residuals in seconds of arc
    230807 W94  0.4-  0.2-    230807 C40  0.0   1.0+    230807 L01  0.5-  0.2-
    230807 W68  0.1-  0.5-    230807 C40  0.6-  0.2-    230807 L65  0.1-  0.5+
    230807 W94  0.4-  0.4-    230807 G17  0.7-  1.3-    230807 L01  0.3-  0.1-
    230807 W68  0.3-  0.3-    230807 G17  0.9-  1.0-    230807 L65  1.3+  0.1+
    230807 W94  0.3-  0.3+    230807 G17  0.3-  0.3-    230808 L65  1.1-  0.4-
    230807 W68  0.2-  0.2+    230807 M21  0.3+  0.4-    230808 I93  0.2-  0.3+
    230807 W68  0.7+  0.8+    230807 104  0.0   0.6-    230808 I93  0.2-  0.1+
    230807 X10  0.1+  0.1-    230807 958  0.2+  0.1+    230808 I93  0.1-  0.2+
    230807 X09  0.1-  0.6+    230807 203  0.2+  0.2-    230808 M22  0.9+  0.5+
    230807 X10  0.2+  0.1+    230807 M21  0.2-  0.2-    230808 M22  0.3+  0.5+
    230807 X09  0.1+  1.0+    230807 104  0.1+  0.0     230808 M22  0.7-  0.8-
    230807 X10  0.4+  0.1+    230807 958  0.3+  0.6-    230808 M22  0.1-  0.4+
    230807 H36  0.1+  0.7+    230807 958  0.3-  0.5-    230808 L81  0.3+  0.3+
    230807 H36  0.3-  0.1-    230807 203  0.4-  0.3-    230808 L81  0.3-  0.3-
    230807 H36  0.2+  0.3-    230807 104  0.2-  0.1-    230808 L81  0.1+  0.7-
    230807 Y05  0.1-  0.3+    230807 M21  0.1+  0.1-    230808 H21  0.3-  0.4+
    230807 Y05  0.1+  0.4-    230807 L01  0.1+  0.0     230808 H21  0.4-  0.4+
    230807 Y05  0.3-  1.0-    230807 K51  0.2-  0.3-    230808 H21  0.5-  0.4+
    230807 L18  0.1-  0.3-    230807 Z80  0.1+  0.8-    230808 H21  0.3-  0.4+
    230807 L18  0.6+  0.8-    230807 K51  0.4-  0.3-    230808 H21  0.2-  0.4+
    230807 C40  0.0   0.6+    230807 Z80  0.6+  0.8-    230808 U52  0.1-  0.4+
    230807 C40  0.2+  0.5+    230807 L01  0.1+  0.3-    230808 U52  0.3-  0.4-
    230807 C40  0.4+  0.5+    230807 L01  0.5-  0.6-    230808 U52  0.1+  1.1-
    230807 L18  0.1+  0.2-    230807 K51  0.4+  0.1+
    230807 C40  0.2+  1.1+    230807 L01  0.3-  0.4-
    
    Ephemeris:
    2023 PD                  a,e,i = 1.83, 0.43, 7                   q = 1.0402
    Date    TT    R. A. (2000) Decl.     Delta      r    Elong.  Phase     V
    2023 07 09    13 36 42.9 -57 03 18   0.1070  1.0617   112.2    62.4    22.5
    ...
    2023 07 24    15 34 11.3 -65 12 05   0.05349 1.0411   116.8    60.6    20.9
    ...
    2023 08 01    20 00 15.6 -54 15 22   0.03200 1.0408   143.1    35.9    19.0
    ...
    2023 08 07    22 01 57.9 -16 12 43   0.03208 1.0455   166.5    13.1    18.4
    2023 08 08    22 12 40.1 -10 25 17   0.03389 1.0467   163.5    15.9    18.6
    2023 08 09    22 21 47.4 -05 15 48   0.03609 1.0480   160.0    19.3    18.8
    ...
    2023 08 15    22 55 41.9 +14 18 27   0.05432 1.0581   145.3    33.1    20.2
    ...
    2023 08 23    23 14 44.9 +24 29 09   0.08445 1.0776   140.1    37.0    21.3
    ...
    2023 09 07    23 25 24.8 +29 19 12   0.1473  1.1302   143.8    31.8    22.4
    
    M. P. C. Staff               (C) Copyright 2023 MPC           M.P.E.C. 2023-P37
    


    Read MPEC 2023-P36 Read MPEC 2023-P38


    MPEC number:

    Enter an MPEC number in one of the following forms:

    • 1997-B01 (the full form)
    • J97B01 (the packed version of the full form)
    • B01 (the abbreviated form)